Regional Weather Roundup
Issued by NWS

Home | Current Version | Previous Version | Text Only | Print | Product List | Glossary Off
Versions: 1 2 3 4 5 6 7 8 9 10 11 12 13 14 15 16 17 18 19 20 21 22 23 24 25 26 27 28 29 30 31 32 33 34 35 36 37 38 39 40 41 42 43 44 45 46 47 48 49 50

000
ASUS43 KLMK 260810
RWRKY
KENTUCKY REGIONAL WEATHER ROUNDUP
NATIONAL WEATHER SERVICE LOUISVILLE KY
400 AM EDT FRI AUG 26 2016

NOTE "FAIR" INDICATES FEW OR NO CLOUDS BELOW 12,000 FEET
WITH NO SIGNIFICANT WEATHER AND/OR OBSTRUCTIONS TO VISIBILITY.

KYZ001>023-026-027-061>063-070>075-260900-
WESTERN AND SOUTH CENTRAL KENTUCKY

CITY           SKY/WX    TMP DP  RH WIND       PRES   REMARKS
PADUCAH        FAIR      74  72  93 CALM      30.07S FOG
HENDERSON      FAIR      72  68  88 SW3       30.07S
OWENSBORO      FAIR      75  74  97 CALM      30.09S
HOPKINSVILLE   FAIR      76  75  98 N6        30.09S
BOWLING GREEN  FAIR      76  74  93 CALM      30.11R
GLASGOW        FAIR      72  72 100 CALM      30.11S FOG
$$

KYZ024-025-028>034-038-045-046-053-260900-
NORTH CENTRAL KENTUCKY

CITY           SKY/WX    TMP DP  RH WIND       PRES   REMARKS
LOUISVILLE/SDF FAIR      77  71  82 E3        30.09S
LOUISVILLE/LOU FAIR      75  71  87 CALM      30.10S
FORT KNOX      FAIR      70  69  96 CALM      30.10R
$$

KYZ035>037-039>044-047>052-055>060-089>105-260900-
NORTHEAST KENTUCKY

CITY           SKY/WX    TMP DP  RH WIND       PRES   REMARKS
LEXINGTON      FAIR      72  69  90 S3        30.13S
COVINGTON      FAIR      74  71  91 SW3       30.11S
FRANKFORT      FAIR      71  67  87 CALM      30.11S
$$

KYZ054-064>069-076>088-106>120-260900-
SOUTHEAST KENTUCKY

CITY           SKY/WX    TMP DP  RH WIND       PRES   REMARKS
JACKSON        FAIR      73  71  93 CALM      30.16R
LONDON         FAIR      72  69  90 CALM      30.15S FOG
SOMERSET       FAIR      70  70 100 CALM      30.15S FOG
MIDDLESBORO    FOG       71  71 100 CALM      30.17S VSB 1/2
MONTICELLO     FAIR     N/A N/A N/A NE9       30.16R FOG
$$





USA.gov is the U.S. government's official web portal to all federal, state and local government web resources and services.